Theta_e
327 327 331 333 333 332 331 329 324 320 316 311 308 306 305 304 303 302 302 301 301 301 300 300 300 299 299 299 299 298 298 297 297 296 296 296 296 296 294 294 294 293 292
325 327 329 330 331 331 326 323 321 319 314 311 308 306 305 304 303 302 301 300 300 300 300 300 299 299 299 298 298 298 297 297 296 295 295 295 295 294 294 293 292 291 291
325 325 327 330 330 329 323 319 317 316 314 310 307 305 304 303 302 301 301 300 300 300 300 300 299 299 298 298 297 297 296 295 295 294 294 295 295 292 292 292 291 290 290
323 323 325 327 329 328 321 318 316 312 311 309 307 306 305 304 303 302 301 300 300 299 299 299 298 298 298 297 296 296 295 294 293 293 292 291 290 290 293 291 290 290 290
321 321 322 323 325 323 321 317 313 310 308 307 306 305 304 304 303 301 300 300 299 299 299 298 298 297 297 296 296 295 294 293 292 291 290 289 289 288 288 290 289 289 288
319 319 318 317 319 321 319 316 312 310 308 307 306 305 305 304 303 301 300 299 299 299 298 298 297 296 296 295 295 294 292 291 291 290 290 289 288 287 287 288 288 288 288
315 317 316 315 314 318 319 315 312 309 307 306 306 305 305 304 303 302 300 300 299 299 298 297 296 296 295 294 294 292 291 290 290 289 288 288 288 287 286 286 287 287 287
312 313 315 314 313 313 315 315 312 310 307 306 305 305 305 304 303 301 300 299 299 298 297 297 296 295 294 293 292 291 290 289 289 288 288 287 286 285 285 284 285 286 286
311 313 311 312 311 311 311 313 311 309 307 306 305 305 305 304 303 301 299 298 298 297 296 296 295 294 293 292 290 290 289 288 287 286 286 285 285 284 283 283 283 283 285
310 311 311 311 310 309 309 309 309 309 308 306 305 305 304 304 302 301 299 298 298 296 296 295 294 293 292 290 289 289 288 286 286 286 285 284 284 283 283 283 282 282 283
309 310 310 310 309 308 308 308 308 308 307 306 305 304 304 303 301 301 298 298 297 296 295 294 293 292 291 289 289 288 287 286 285 284 283 283 282 283 283 282 282 281 282
309 309 310 310 309 308 307 307 307 306 307 306 304 303 303 301 301 300 298 297 296 295 294 293 292 291 289 288 287 286 286 285 284 283 283 282 282 283 282 281 281 281 280
309 309 309 309 310 308 307 306 306 304 305 305 304 302 302 301 300 298 297 296 295 294 292 291 290 289 288 288 286 286 285 284 283 282 282 281 282 282 281 280 280 280 280
309 309 309 309 309 309 307 306 305 304 304 303 302 302 301 301 299 298 296 295 294 293 292 290 289 288 287 286 286 285 284 283 282 282 282 280 281 280 280 279 279 279 280
309 309 309 309 309 307 307 306 304 304 303 303 302 301 301 300 297 296 295 294 293 292 291 290 288 287 286 286 285 284 283 282 282 281 280 280 280 279 279 278 278 278 278
309 309 309 309 309 309 308 307 306 304 303 302 302 301 301 298 297 295 294 292 291 290 289 289 288 287 286 285 284 283 283 282 281 280 280 280 279 278 278 277 278 278 277
309 309 309 309 309 310 309 308 306 305 303 302 300 300 298 296 296 296 293 291 290 291 290 288 287 286 285 285 284 283 282 281 280 279 279 279 278 278 277 277 278 277 276
307 308 308 308 308 309 308 306 304 302 303 301 300 299 298 297 297 294 292 291 294 291 289 288 287 286 285 284 284 283 282 280 279 279 279 278 278 277 277 277 277 277 276
307 307 306 307 307 308 308 306 303 301 300 299 299 299 298 297 295 293 292 295 292 290 288 287 286 285 284 283 283 282 281 279 278 278 278 277 277 276 275 276 276 276 275
305 307 307 307 307 307 306 305 303 301 298 298 298 297 296 296 293 294 294 292 291 289 288 286 285 284 283 282 282 281 279 278 277 277 277 276 276 276 276 275 275 274 274
305 306 306 306 305 304 304 302 301 299 298 298 296 295 295 295 296 295 292 291 289 288 286 285 284 283 283 282 281 280 277 277 278 277 276 276 275 275 275 275 274 274 273
305 305 306 306 303 301 301 300 299 298 298 296 295 295 295 296 295 293 291 290 289 286 285 284 283 283 282 281 279 277 277 277 277 276 275 275 274 274 274 274 274 273 272
303 303 305 303 300 298 299 299 298 297 295 294 294 294 296 294 293 292 290 288 286 285 285 284 283 282 281 279 277 277 277 276 275 275 275 274 273 273 273 273 273 272 271
300 300 300 299 297 297 298 298 296 295 294 294 294 295 293 292 291 290 288 286 286 285 284 283 282 281 279 277 277 276 276 275 275 275 274 273 272 272 273 273 272 271 269
298 298 298 298 298 297 296 296 296 294 294 294 295 293 292 292 289 287 286 285 284 284 283 282 281 280 278 277 276 276 275 275 274 274 273 272 272 272 271 271 270 270 268
298 298 297 296 295 294 295 295 294 293 294 294 293 293 292 288 287 286 284 283 282 282 282 281 279 278 277 276 276 275 275 274 274 273 272 272 271 270 270 269 268 268 267
Wind_Speed
33 35 42 44 42 41 41 41 40 38 37 36 35 31 29 25 22 19 16 13 10 7 5 2 1 2 3 5 6 7 8 7 7 6 3 1 2 4 10 9 10 14 17
30 38 42 43 44 45 45 43 41 40 40 37 35 33 30 26 22 20 17 14 12 9 6 3 1 0 3 5 6 7 7 7 7 6 2 1 1 4 4 7 13 14 15
36 40 44 47 47 49 49 46 44 43 41 39 36 34 31 28 27 24 20 17 14 11 8 5 3 1 2 3 5 7 8 8 7 7 4 2 1 7 5 5 14 18 17
33 40 45 48 54 56 52 48 46 45 43 41 41 40 38 35 31 26 23 19 16 13 9 6 4 2 2 3 5 7 9 7 7 7 6 5 2 3 1 9 11 14 13
37 42 46 50 50 53 54 51 47 45 45 44 43 41 38 34 30 27 24 22 18 14 11 8 6 4 4 4 5 6 5 5 7 7 8 7 6 5 2 5 11 14 11
36 38 39 39 45 52 55 53 50 49 47 46 45 43 40 37 33 31 28 24 21 17 13 10 8 6 4 3 4 5 4 5 6 6 6 5 4 5 5 4 11 13 14
23 29 33 37 41 49 56 55 53 52 50 48 46 44 41 37 34 33 30 28 24 20 16 13 9 7 4 4 4 3 4 4 5 6 6 6 6 7 7 6 6 8 13
19 22 30 34 37 42 50 57 56 55 52 50 48 45 42 39 35 33 31 28 24 20 18 14 11 8 7 4 3 2 3 4 5 6 6 6 6 7 8 7 8 11 7
34 24 17 28 32 37 43 53 57 56 53 50 48 47 44 41 38 35 32 29 26 23 19 16 12 9 8 5 3 2 2 3 4 4 5 5 5 6 8 9 11 7 7
29 27 17 18 25 30 35 42 54 57 52 49 49 48 45 42 39 37 36 32 29 25 21 17 14 11 8 6 4 2 2 2 4 4 4 3 4 5 8 10 10 8 8
27 24 18 12 16 23 29 35 48 57 53 52 50 47 46 43 41 37 35 35 30 26 22 19 16 12 10 7 5 4 2 2 4 4 3 4 5 6 8 9 10 10 10
27 23 14 12 12 17 23 30 40 53 54 52 50 48 45 45 42 42 39 34 30 27 23 19 15 13 10 7 6 4 2 2 2 3 4 5 6 7 8 9 10 10 12
24 25 18 14 12 16 21 26 35 46 52 51 50 48 46 43 43 39 36 33 31 27 24 19 15 12 9 8 7 4 3 2 3 5 5 6 7 8 8 10 9 10 11
26 25 21 20 19 17 20 24 32 40 49 49 49 47 45 41 41 39 36 33 30 27 22 18 14 12 9 8 6 4 3 3 3 4 5 7 9 9 10 9 9 10 11
23 24 25 26 25 24 23 24 31 38 45 50 48 47 45 40 41 36 33 31 28 24 20 17 14 12 10 7 6 4 4 5 5 5 5 8 9 10 10 8 9 10 13
27 24 27 31 29 28 30 28 28 38 41 48 48 49 43 40 40 33 32 29 26 22 19 14 13 12 9 8 6 5 5 6 7 7 7 9 10 10 8 8 12 14 17
28 28 28 29 33 28 30 31 33 36 41 46 48 48 45 43 39 35 33 29 25 20 15 14 13 13 12 10 8 7 7 8 7 8 8 9 11 11 10 14 16 18 18
19 23 25 24 25 26 25 28 33 39 41 45 50 48 46 44 39 38 33 26 21 18 15 15 15 15 14 12 9 7 8 9 8 8 9 10 11 12 12 16 19 20 20
28 27 25 26 25 25 26 25 31 35 40 45 49 48 48 46 41 37 28 28 25 20 17 15 18 17 15 12 10 9 9 10 8 9 10 12 11 13 13 16 20 21 22
29 24 29 28 20 22 25 27 30 34 39 42 45 48 47 42 36 29 31 28 21 19 17 19 20 18 16 13 12 11 11 9 7 9 11 11 12 14 15 17 18 22 22
28 20 27 30 18 14 19 24 29 32 36 39 41 42 40 34 28 31 29 24 22 18 19 20 20 19 15 14 14 13 10 9 8 10 10 11 14 15 17 18 19 21 24
24 20 19 27 20 13 18 22 26 30 32 33 35 33 33 30 32 30 26 22 19 20 21 21 20 18 16 15 14 12 9 10 8 10 11 13 16 17 17 19 22 22 24
20 14 10 11 12 15 15 21 24 25 28 29 31 35 33 31 29 27 23 20 21 21 20 20 18 17 17 13 11 9 8 9 8 9 11 14 16 18 18 20 22 23 21
14 8 6 10 12 14 14 17 21 22 25 31 36 33 31 29 26 21 18 18 21 20 19 19 19 18 15 12 11 9 7 6 7 10 14 16 17 18 19 21 22 21 19
8 6 8 11 12 12 14 15 18 22 29 34 32 30 28 25 22 18 17 16 15 15 17 17 16 17 13 11 10 8 6 6 9 12 15 16 17 17 17 19 21 21 19
7 7 9 11 12 13 15 17 21 26 28 31 29 28 24 21 20 22 20 18 15 16 15 16 15 13 10 10 7 5 8 9 14 12 13 14 15 16 17 17 18 19 20
Wind_Direction
230 225 220 218 216 217 214 213 210 208 208 205 202 200 200 198 196 195 193 191 189 183 172 154 89 47 30 28 30 30 31 26 28 25 17 26 7 11 349 352 360 357 358
228 229 225 218 217 215 213 212 211 212 210 211 209 208 202 199 201 196 193 190 190 187 181 179 172 1 16 16 14 19 20 20 31 31 74 155 222 314 298 351 352 354 358
227 227 225 220 216 215 215 212 213 213 213 212 210 206 204 201 198 196 197 194 191 191 191 193 204 251 348 354 356 8 14 15 28 35 58 86 181 327 327 325 343 350 354
232 235 232 222 219 217 214 214 214 213 215 214 212 213 210 206 205 203 199 196 194 194 195 200 214 239 301 327 349 359 2 7 22 27 27 33 37 98 348 317 327 348 356
239 239 238 236 225 218 216 214 213 213 215 213 215 213 212 212 210 203 201 199 197 198 199 204 217 240 274 307 338 348 344 0 15 23 24 15 13 7 25 311 329 343 360
252 247 243 235 230 223 219 216 213 214 215 214 214 215 214 212 207 205 203 201 201 201 201 208 215 232 252 292 314 325 344 1 10 14 15 12 14 1 6 327 326 335 335
282 257 244 235 228 225 220 216 213 214 214 214 215 215 215 216 215 213 209 206 204 202 204 207 212 225 245 264 292 314 348 351 358 7 12 9 359 353 349 350 335 333 331
358 280 265 254 244 234 226 218 214 214 214 213 215 216 215 215 216 216 214 210 208 206 206 207 211 221 233 245 257 288 316 330 350 360 2 359 357 355 353 356 356 344 328
8 358 275 257 249 242 233 225 218 216 215 213 214 214 214 214 216 215 214 211 209 209 207 209 210 214 219 224 220 277 307 338 353 356 1 7 359 358 355 349 346 340 326
3 6 350 281 259 249 241 232 223 221 218 215 216 215 214 215 216 216 213 211 212 209 210 209 211 208 210 207 215 243 275 337 332 341 2 0 352 355 348 344 340 334 305
354 356 356 320 272 258 248 238 228 222 218 216 217 215 216 215 215 216 216 216 211 212 208 209 206 205 200 203 215 219 229 300 324 339 350 352 345 347 343 344 334 327 312
340 338 338 333 294 262 247 240 231 226 221 219 216 216 214 214 214 215 213 212 212 207 208 204 203 200 197 202 210 210 221 257 294 317 338 337 333 347 340 335 328 323 321
326 327 312 299 292 273 251 238 232 228 222 220 217 215 213 214 215 213 214 210 208 206 200 202 200 201 198 207 206 218 226 270 310 337 338 319 341 340 335 335 325 328 322
312 317 315 295 278 267 257 243 236 229 224 220 216 214 212 213 215 217 210 208 207 204 199 198 200 199 206 205 216 236 251 268 301 323 324 316 343 331 333 333 332 328 327
299 304 306 302 279 259 248 242 236 232 226 221 218 213 213 215 211 210 208 206 204 201 198 196 198 207 209 221 233 240 272 299 311 317 313 329 337 323 322 325 324 325 327
295 288 293 297 286 271 251 237 234 234 229 224 218 216 214 209 210 205 207 202 198 194 194 199 210 219 221 229 238 255 281 301 316 313 326 337 329 322 321 309 316 318 327
292 295 289 284 289 275 258 248 238 223 226 224 217 215 209 202 203 206 197 197 193 196 198 198 218 222 227 229 239 262 291 308 312 313 329 332 323 319 317 311 320 326 322
292 303 309 300 293 283 265 248 235 228 218 217 217 212 206 206 202 194 193 191 206 196 193 209 220 226 231 233 247 268 298 304 303 312 323 324 319 319 318 312 318 322 321
316 308 312 308 290 277 258 234 222 222 219 216 215 213 208 203 197 187 186 208 198 185 196 211 219 223 230 238 251 275 288 291 297 309 318 319 318 317 315 316 320 323 323
320 329 334 334 310 275 236 226 217 213 210 213 213 211 204 196 183 189 202 197 185 188 201 209 213 221 227 242 262 275 281 278 294 308 312 316 319 313 319 322 320 321 326
320 324 333 341 328 275 233 211 209 208 209 209 207 203 195 184 191 199 192 184 185 192 200 211 215 219 230 250 262 270 270 280 295 297 302 313 317 321 323 325 323 319 316
317 310 321 328 308 230 208 205 206 208 209 205 199 190 179 189 192 185 178 183 189 194 204 207 212 223 237 249 256 258 272 286 294 287 306 318 325 325 326 327 324 322 320
313 305 301 271 241 208 210 206 205 203 196 190 182 174 185 184 179 178 177 181 191 201 207 211 219 231 239 244 248 258 279 289 278 293 316 326 322 321 323 325 326 328 326
298 278 245 216 202 199 199 210 196 191 187 180 178 182 177 172 173 170 178 184 200 206 212 218 224 232 235 237 242 259 275 282 296 316 323 324 322 321 323 329 333 332 327
258 242 223 207 201 192 183 193 193 184 177 179 179 173 173 171 166 170 184 195 207 219 223 227 233 234 232 234 231 252 273 288 305 321 325 323 320 322 327 330 332 331 328
238 219 207 200 187 181 175 172 178 179 182 176 173 171 166 162 172 183 182 187 204 215 229 234 227 222 216 209 212 243 282 304 311 317 314 315 317 321 326 327 327 327 325